Location: *
(50.3194°N, 7.1067°E)
Time: 18:10:52
(UTC+00:00)

Cosmos 1455 Rocket - Pass Details

Date: 22 September 2019
Orbit: 604 x 630 km, 82.5° (Epoch: 23 October)

Event Time Altitude Azimuth Distance (km) Brightness Sun altitude
Rises 18:05:35 0° 148° (SSE) 2,900 6.1 -6.4°
Reaches altitude 10° 18:08:17 10° 132° (SE) 2,002 5.2 -6.8°
Maximum altitude 18:11:29 20° 85° (E) 1,467 4.4 -7.3°
Drops below altitude 10° 18:14:43 10° 39° (NE) 2,020 5.4 -7.8°
Sets 18:17:26 0° 23° (NNE) 2,935 6.4 -8.3°
